Flag for India Weather past 2 weeks in Nadiad, Gujarat, India

Now
77 °F

Clear.


Feels Like: 78 °F
Forecast: 54 / 85 °F
Wind: 5 mph from Northeast

Location: Ahmadabad Airport

Current Time: Jan 30, 2015 at 6:29:01 PM

Latest Report: Jan 30, 2015 at 5:40 PM


Visibility: 4 mi

Pressure: 30.04 "Hg

Humidity: 32%

Dew point: 45 °F

Location of NadiadLocation

Historic Weather in Nadiad — Graph

°F

Nadiad temperature yesterday

Maximum temperature yesterday: 79 °F (at 4:40 PM)
Minimum temperature yesterday: 52 °F (at 4:40 AM)
Average temperature yesterday: 63 °F

Past Weeks' High & Low Weather Summary

 TemperatureHumidityPressure
High82 °F (Jan 20, 2:40 PM)94% (Jan 22, 12:40 AM)30.18 "Hg (Jan 22, 12:40 AM)
Low52 °F (Jan 17, 7:40 AM)26% (Jan 30, 3:40 PM)29.89 "Hg (Jan 19, 3:40 PM)
Average66 °F59%30.02 "Hg
* Reported Jan 15 4:40 PM — Jan 30 4:40 PM, Nadiad, Weather by CustomWeather, © 2014

Note: Actual official high and low records may vary slightly from our data, if they occured in-between our weather recording intervals... More about our weather records

Advertising

Nadiad weather history for previous 24 hours

 ConditionsComfort  
Time TempWeatherWind HumidityBarometerVisibility
4:40 PM
Jan 30
81 °FClear.8 mph26%30.01 "Hg4 mi
3:40 PM81 °FClear.6 mph26%30.04 "Hg4 mi
2:40 PM79 °FClear.8 mph30%30.04 "Hg4 mi
11:40 AM73 °FClear.12 mph36%30.15 "Hg3 mi
9:40 AM63 °FClear.9 mph49%30.18 "Hg2 mi
8:40 AM59 °FClear.10 mph51%30.15 "Hg2 mi
7:40 AM55 °FHaze.8 mph59%30.12 "Hg2 mi
6:40 AM55 °FHaze.7 mph59%30.09 "Hg2 mi
5:40 AM55 °FHaze.6 mph59%30.09 "Hg2 mi
4:40 AM55 °FHaze.5 mph59%30.07 "Hg2 mi
3:40 AM52 °FHaze.3 mph72%30.04 "Hg2 mi
2:40 AM55 °FHaze.6 mph67%30.07 "Hg2 mi
1:40 AM54 °FHaze.No wind77%30.07 "Hg2 mi
12:40 AM54 °FClear.3 mph72%30.07 "Hg2 mi
11:40 PM
Jan 29
59 °FClear.No wind63%30.07 "Hg2 mi
10:40 PM63 °FClear.3 mph49%30.07 "Hg2 mi
9:40 PM64 °FClear.5 mph49%30.07 "Hg2 mi
8:40 PMN/A3 mphN/AN/A2 mi
7:40 PMN/A2 mphN/AN/A2 mi
6:40 PMN/A2 mphN/AN/A2 mi
Weather by CustomWeather, © 2014

See weather overviewHow to use our weather pages